Overview Statistics Trail Chart Weather Telemetry Raw packets
 

This is the latest recevied weather packets stored in our database for station/object K0APR. If no packets are shown the sender has not sent any weather packets the latest 10 day(s).

<< 16 17 18 19 20 21 22 >>
Time Temp. Humidity Pressure Rain* Wind** Luminosity Snow
1788547015 27.22° C 78% 1013.7 hPa 0 mm - 576 W/m² -
1788546714 27.78° C 77% 1013.7 hPa 0 mm - 594 W/m² -
1788546410 28.33° C 77% 1013.7 hPa 0 mm - 586 W/m² -
1788546105 27.78° C 78% 1013.7 hPa 0 mm - 584 W/m² -
1788545802 27.22° C 79% 1013.7 hPa 0 mm - 564 W/m² -
1788545501 27.22° C 80% 1013.7 hPa 0 mm - 568 W/m² -
1788545197 26.67° C 80% 1013.3 hPa 0 mm - 586 W/m² -
1788544892 26.11° C 82% 1013.7 hPa 0 mm - 546 W/m² -
1788544591 26.11° C 81% 1013.3 hPa 0 mm - 542 W/m² -
1788544289 26.11° C 82% 1013.7 hPa 0 mm - 541 W/m² -
1788543990 25° C 84% 1013.7 hPa 0 mm - 540 W/m² -
1788543686 25° C 85% 1013.7 hPa 0 mm - 573 W/m² -
1788543381 25° C 85% 1013.7 hPa 0 mm - 578 W/m² -
1788543077 24.44° C 87% 1013.7 hPa 0 mm - 579 W/m² -
1788542773 23.89° C 87% 1013.7 hPa 0 mm - 563 W/m² -
1788542472 23.89° C 87% 1013.7 hPa 0 mm - 576 W/m² -
1788542167 23.33° C 89% 1013.7 hPa 0 mm - 599 W/m² -
1788541863 22.78° C 90% 1013.7 hPa 0 mm - 701 W/m² -
1788541558 22.78° C 90% 1014 hPa 0 mm - 382 W/m² -
1788541254 22.22° C 91% 1013.7 hPa 0 mm - 606 W/m² -
1788540953 22.22° C 92% 1013.7 hPa 0 mm - 259 W/m² -
1788540652 22.22° C 92% 1014 hPa 0 mm - 357 W/m² -
1788540347 21.67° C 92% 1014 hPa 0 mm - 392 W/m² -
1788540043 21.67° C 93% 1013.7 hPa 0 mm - 245 W/m² -
1788539743 21.67° C 93% 1013.7 hPa 0 mm - 301 W/m² -

* Rain latest hour (hover to see other rain measurements)
** Current wind speed in m/s (hover to see current wind gust speed)